Location: Dingé
(48.3570°N, 1.7149°W)
Time: 14:22:53
(UTC+00:00)

Daily predictions for brighter satellites

Satellite Brightness Start Highest point End
(mag) Time Altitude Azimuth Time Altitude Azimuth Time Altitude Azimuth
Cosmos 2084 3.9 20:38:23 10° S 20:42:10 35° ESE 20:45:49 10° ENE
SPOT 3 Rocket 4.4 20:39:19 10° SE 20:44:04 38° ENE 20:48:52 10° N
NOSS 2-2 (E) 3.3 20:46:42 10° SSW 20:49:45 35° SE 20:52:38 10° ENE
NOSS 2-2 (C) 2.7 20:46:54 10° SSW 20:50:04 56° SE 20:53:08 10° NE
Nadezhda 3 Rocket 4.1 20:47:08 10° N 20:53:16 66° ENE 20:59:23 10° SSE
BREEZE-M DEB (TANK) 3.1 20:50:56 10° WNW 20:53:34 83° SSW 21:00:11 10° ESE
Cosmos 2181 Rocket 4.5 20:48:01 10° NNW 20:54:05 63° W 21:00:11 10° S
NOSS 2-3 (E) 3.5 20:52:28 10° SSW 20:55:56 42° ESE 20:59:42 10° NE
Cosmos 1844 3.8 20:50:50 10° SSW 20:56:39 88° WNW 21:02:28 10° NNE
Terra 2.0 20:53:11 10° SSE 20:57:50 63° ENE 21:02:30 10° N
Meteor 1-21 Rocket 4.2 20:58:22 10° S 21:03:54 80° E 21:09:27 10° NNE
USA 305 4.3 21:00:48 10° W 21:04:20 34° NNW 21:07:36 10° NE
ATLAS CENTAUR R/B 1.3 21:03:08 10° NW 21:07:08 89° WSW 21:10:52 13° SE
GP-B 3.8 21:02:59 10° N 21:07:19 57° W 21:11:38 10° SSW
Cosmos 1437 Rocket 4.3 21:07:19 12° SE 21:09:19 17° E 21:11:46 10° NE
Okean 1 Rocket 4.3 21:05:37 10° NNW 21:09:49 41° W 21:14:00 10° SSW
Cosmos 1833 Rocket 3.3 21:07:57 10° NNW 21:13:25 46° NE 21:18:22 12° SE
NOSS 2-3 (C) 3.1 21:10:04 10° SSW 21:13:38 62° SE 21:17:36 10° NE
Meteor 2-1 Rocket 4.3 21:08:04 10° N 21:13:43 68° ENE 21:18:59 11° SSE
Cosmos 1455 Rocket 3.1 21:10:41 10° NNW 21:15:06 82° W 21:19:27 10° S
Cosmos 1975 Rocket 3.1 21:13:57 10° S 21:18:23 70° E 21:22:51 10° NNE
Cosmos 1025 Rocket 3.6 21:14:39 10° SSW 21:18:50 58° WNW 21:23:03 10° N
Cosmos 44 4.2 21:14:23 10° S 21:19:00 32° ESE 21:23:30 10° NE
Orbus 7S? 3.2 21:16:44 10° WNW 21:19:24 42° SW 21:21:20 16° SSE
Lacrosse 5 2.4 21:15:55 10° WSW 21:20:56 65° NNW 21:26:00 10° NE
ERS-1 Rocket 3.2 21:18:34 10° S 21:23:33 68° WSW 21:28:33 10° NNW
Spot 2 Rocket 3.5 21:19:30 10° SSE 21:24:33 88° WSW 21:29:41 10° NNW
Cosmos 220 Rocket 4.2 21:20:56 10° NNW 21:25:01 55° ENE 21:28:09 16° SE
Cosmos 2082 Rocket 3.9 21:21:51 10° N 21:26:13 22° NE 21:30:35 10° E
NOSS 2-2 (D) 2.6 21:24:15 10° SW 21:27:31 89° ESE 21:30:40 10° NE
USA 307 4.1 21:23:55 10° W 21:27:36 38° N 21:31:10 10° ENE
ATLAS 5 CENTAUR R/B 3.1 21:24:32 10° WSW 21:27:37 32° NW 21:31:04 10° NNE
Landsat 5 4.3 21:27:17 10° NNE 21:31:19 34° E 21:34:10 17° SSE
Cosmos 1844 Rocket 3.9 21:27:30 10° SW 21:32:48 44° NW 21:38:09 10° NNE
Cosmos 2278 Rocket 3.5 21:31:13 15° SE 21:34:01 22° E 21:38:15 10° NE
Cosmos 1606 2.4 21:31:53 10° N 21:35:28 86° ENE 21:38:05 17° S
Cosmos 1339 Rocket 4.5 21:31:33 10° N 21:37:50 88° E 21:43:23 13° S
Cosmos 2298 Rocket 4.5 21:33:30 11° S 21:38:16 43° ESE 21:43:18 10° NE
MetOp-A 4.1 21:35:02 17° SE 21:38:22 48° ENE 21:42:32 10° N
Okean O Rocket 4.3 21:36:43 10° WSW 21:38:36 13° W 21:40:29 10° WNW
Cosmos 2341 Rocket 4.2 21:33:38 12° SSE 21:39:24 57° E 21:45:36 10° NNE
Cosmos 614 Rocket 4.4 21:36:04 10° NNW 21:41:00 48° ENE 21:44:35 18° SE
Meteor 1-11 4.3 21:36:47 10° S 21:42:32 90° E 21:48:15 10° NNE
Cosmos 1869 3.3 21:43:30 10° NNW 21:47:20 74° W 21:50:08 18° S
CZ-4C R/B 4.3 21:43:42 10° NW 21:49:21 30° NNE 21:56:07 10° E
Cosmos 1536 Rocket 4.1 21:47:10 20° SSE 21:49:38 40° E 21:53:42 10° NNE
Ariane Rocket 3.5 21:47:25 12° S 21:51:58 57° W 21:56:59 10° NNW
ISS -2.7 21:49:18 10° WNW 21:52:31 45° N 21:55:44 10° ENE
MOS 1 Rocket 4.3 21:51:04 10° SSW 21:55:26 39° W 21:59:38 10° NNW
USA 290 4.3 21:58:15 14° E 21:58:15 14° E 21:59:38 10° ENE
ARIANE 5 R/B 3.7 21:58:54 19° ESE 22:01:26 34° ENE 22:05:27 10° N
GENESIS II 3.9 21:58:16 10° NW 22:01:51 87° SW 22:03:31 30° SE
BREEZE-M DEB (TANK) 3.7 21:52:06 10° WNW 22:03:52 55° SW 22:06:11 24° SSE
ATLAS 3B R/B 3.9 22:01:26 19° SE 22:04:13 24° ESE 22:09:56 10° ENE
Cosmos 2228 2.9 22:01:23 10° N 22:05:37 84° W 22:08:06 24° S
Cosmos 1943 Rocket 3.3 22:08:20 22° SE 22:10:21 27° ESE 22:14:59 10° NE
Geosat 4.1 22:05:30 10° NNE 22:10:32 82° WNW 22:15:33 10° SW
Cosmos 2098 4.4 22:09:33 22° S 22:11:47 85° W 22:14:56 10° N
USA 276 2.9 22:10:11 10° W 22:12:54 32° SSW 22:13:09 31° SSW
Cosmos 1821 Rocket 4.4 22:09:49 22° SSE 22:13:43 50° E 22:19:49 10° NNE
Cosmos 1125 Rocket 4.2 22:10:48 10° SW 22:16:01 56° WNW 22:21:15 10° NNE
Gbstr 26 Del rocket 4.0 22:13:41 10° W 22:18:18 59° N 22:24:01 10° E
Cosmos 2150 Rocket 4.1 22:14:27 10° SSW 22:19:51 89° WNW 22:25:21 10° NNE
ALOS 2 4.4 22:19:19 14° ESE 22:21:39 21° ENE 22:24:58 10° NNE
Cosmos 2084 Rocket 4.1 22:21:16 10° NNW 22:25:08 44° NE 22:27:21 22° ESE
NOSS 3-1 (C) 3.0 22:24:27 15° SSW 22:28:23 61° SE 22:34:08 10° NE
SeaSat 1 3.5 22:26:56 17° ESE 22:30:12 38° NE 22:34:46 10° NNW
Cosmos 1812 3.3 22:32:15 10° N 22:35:37 38° ENE 22:36:28 32° ESE
Terra 4.1 22:32:42 10° SW 22:35:50 18° W 22:39:00 10° NW
Cosmos 2366 rocket 4.2 22:30:37 15° SSW 22:35:52 71° WNW 22:42:01 10° N
USA 305 4.2 22:33:53 10° WNW 22:37:10 30° N 22:40:03 10° ENE
Cosmos 1238 Rocket 4.4 22:38:34 10° NNE 22:41:07 19° ENE 22:42:01 18° E
Aureole 2 4.2 22:41:11 55° SE 22:41:25 57° ESE 22:44:43 10° NNE
BREEZE-M R/B 3.6 22:37:22 10° WSW 22:41:32 75° SSE 22:54:30 10° ENE
PSLV R/B 4.2 22:40:01 10° NNE 22:43:53 47° E 22:44:51 38° SE
ATLAS CENTAUR R/B 3.8 22:42:39 10° W 22:44:09 12° WSW 22:45:40 10° SW
Cosmos 1437 Rocket 4.0 22:42:03 15° SW 22:44:40 35° WNW 22:48:02 10° N
Cosmos 1892 Rocket 4.0 22:45:05 35° SE 22:46:28 47° E 22:50:45 10° NNE
Cosmos 1140 Rocket 4.2 22:47:13 10° NNW 22:52:08 44° ENE 22:54:48 24° ESE
Cosmos 1833 Rocket 3.8 22:52:10 10° NW 22:57:10 33° WSW 23:00:03 21° SSW
MINOTAUR 4 R/B 4.3 22:54:45 10° NNE 22:57:02 37° ENE 22:57:02 37° ENE
Cosmos 2239 Rocket 4.5 22:55:30 29° S 22:58:48 73° E 23:05:03 10° NNE
Cosmos 44 4.3 22:54:57 10° WSW 23:00:02 50° NW 23:04:56 10° NNE
SL-08 R/B 4.4 22:57:34 29° S 23:00:48 74° E 23:06:54 10° NNE
BREEZE-M DEB (TANK) 3.4 22:58:06 10° WNW 23:00:53 88° N 23:07:56 10° ESE
USA 307 4.1 22:57:50 10° WNW 23:01:25 36° N 23:04:44 10° ENE
Cosmos-2242 4.4 23:00:51 10° NNE 23:04:27 26° ENE 23:05:51 22° ESE
Lacrosse 5 3.7 23:00:06 10° WNW 23:04:39 32° N 23:09:13 10° NE
Cosmos 2123 Rocket 4.2 22:58:26 10° N 23:04:42 63° ENE 23:07:51 30° SSE
Cosmos 1606 Rocket 3.9 23:01:13 10° NNW 23:05:28 56° W 23:07:01 35° SSW
NOSS 3-1 (A) 3.1 23:03:57 35° S 23:05:50 54° ESE 23:11:32 10° NE
Cosmos 1726 Rocket 3.6 23:03:21 10° NNW 23:07:41 72° W 23:09:05 41° S
Cosmos 1000 Rocket 4.4 23:03:22 10° N 23:09:34 86° W 23:12:37 32° S
Cosmos 2082 Rocket 2.1 23:05:21 10° NNW 23:11:00 83° WSW 23:13:28 35° SSE
Cosmos 2278 Rocket 2.5 23:12:59 16° SW 23:17:34 67° WNW 23:23:14 10° NNE
ULPM Upper Stage 2.7 23:15:08 10° NW 23:19:31 82° NE 23:20:59 41° SE
Cosmos 2369 Rocket 3.7 23:19:37 18° ESE 23:20:37 19° E 23:24:28 10° NE
H-2A R/B 2.2 23:20:31 54° S 23:21:21 83° WSW 23:25:12 10° NNW
PSLV R/B 4.5 23:17:38 10° NNE 23:21:35 34° E 23:22:20 31° ESE
CZ-2C R/B 4.4 23:17:18 10° N 23:21:46 50° WNW 23:24:28 23° SW
ISS -3.6 23:26:14 10° WNW 23:29:33 71° NNE 23:30:10 53° E
USA 290 3.5 23:30:56 29° W 23:31:53 36° WNW 23:34:53 10° N
Cosmos 2058 Rocket 3.0 23:29:09 10° NNW 23:33:30 73° W 23:34:37 48° SSW
USA 229 DEB 4.2 23:32:18 30° SE 23:33:45 33° ESE 23:39:33 10° NE
USA 229 4.2 23:32:27 30° SE 23:33:53 33° ESE 23:39:40 10° NE
Cosmos 1782 3.1 23:30:14 10° N 23:33:58 51° ENE 23:34:35 46° ESE
CRYOSAT 2 4.4 23:31:34 10° N 23:36:27 68° E 23:37:58 43° SSE
Cosmos 482 Debris 4.5 23:33:02 10° WSW 23:37:45 69° NNW 23:41:11 10° ENE
ARIANE 5 R/B 4.0 23:36:22 24° SW 23:37:49 29° W 23:41:44 10° NW
Cosmos 1378 3.7 23:35:00 10° N 23:38:02 36° ENE 23:38:06 36° E
CZ-4C R/B 3.1 23:31:52 10° NW 23:38:51 75° NE 23:45:35 18° SE
COSMOS 2455 4.5 23:34:13 10° NNW 23:39:32 30° NE 23:44:49 10° E
COSMOS 2406 3.3 23:35:09 10° NNW 23:40:46 63° WSW 23:42:50 38° S
Meteor 2-2 Rocket 4.5 23:35:09 10° N 23:40:50 64° ENE 23:43:24 33° SE
Dummy Sat-02 4.5 23:38:32 10° N 23:42:14 83° W 23:42:41 68° SSW
Cosmos 1934 Rocket 4.0 23:39:12 33° S 23:42:15 87° W 23:48:31 10° N
Cosmos 2221 4.4 23:41:47 10° NNE 23:45:03 21° ENE 23:46:52 16° ESE
Cosmos 2285 Rocket 4.4 23:45:23 10° NNW 23:51:45 58° ENE 23:55:34 24° SE
Cosmos 1943 Rocket 2.7 23:49:48 19° SW 23:53:44 56° WNW 23:59:17 10° NNE
